Fallon NAS, NV

1:07 AM PST on December 12, 2017 (GMT -0800)
Fallon Naval Air Station

Weather History for KNFL - May, 2013

Change the Weather History Date:

Tuesday, May 28, 2013

  Actual Average Record
Temperature  
Mean Temperature 61 °F -  
Max Temperature 71 °F 77 °F 97 °F (1983)
Min Temperature 51 °F 43 °F 33 °F (1929)
Degree Days  
Heating Degree Days 4    
Growing Degree Days 11 (Base 50)    
Moisture  
Dew Point 37 °F    
Average Humidity 48    
Maximum Humidity 89    
Minimum Humidity 19    
Precipitation  
Precipitation 0.07 in - - ()
Sea Level Pressure  
Sea Level Pressure 29.83 in    
Wind  
Wind Speed 8 mph (NW)    
Max Wind Speed 17 mph    
Max Gust Speed 26 mph    
Visibility 10 miles    
Events Rain    
Averages and records for this station are not official NWS values.
T = Trace of Precipitation, MM = Missing Value Source: NWS Daily Summary

Daily Weather History Graph

Daily Weather History Graph

Search for Another Location

Airport or City:

Trip Planner

Search our weather history database for the weather conditions in past years. The results will help you decide how hot, cold, wet, or windy it might be!

Date:

Astronomy

May. 28, 2013 Rise Set
Actual Time 5:31 AM PDT 8:13 PM PDT
Civil Twilight 5:00 AM PDT 8:44 PM PDT
Nautical Twilight 4:20 AM PDT 9:24 PM PDT
Astronomical Twilight 3:36 AM PDT 10:08 PM PDT
Moon 11:40 PM PDT (5/28) 9:24 AM PDT (5/28)
Length of Visible Light 15h 44m
Length of Day
14h 41m
Waning Gibbous, 82% of the Moon is Illuminated
May 28
Waning Gibbous
May 31
Last Quarter
Jun 8
New
Jun 16
First Quarter
Jun 23
Full

Hourly Weather History & Observations

Time (PDT) Temp. Dew Point Humidity Pressure Visibility Wind Dir Wind Speed Gust Speed Precip Events Conditions
12:56 AM 55.0 °F 46.0 °F 72% 29.83 in 10.0 mi North 3.5 mph - 0.00 in Rain Light Rain
1:56 AM 53.1 °F 48.0 °F 83% 29.81 in 10.0 mi Calm Calm - 0.01 in Rain Light Rain
2:56 AM 52.0 °F 48.9 °F 89% 29.80 in 10.0 mi ENE 5.8 mph - 0.04 in Rain Light Rain
3:56 AM 52.0 °F 48.0 °F 86% 29.81 in 10.0 mi NE 3.5 mph - 0.01 in Rain Light Rain
4:56 AM 52.0 °F 46.9 °F 83% 29.82 in 10.0 mi West 5.8 mph - 0.01 in   Overcast
5:56 AM 52.0 °F 43.0 °F 71% 29.82 in 10.0 mi West 17.3 mph - N/A   Mostly Cloudy
6:17 AM 53.6 °F 42.8 °F 67% 29.90 in 10.0 mi WNW 11.5 mph - N/A   Mostly Cloudy
6:56 AM 54.0 °F 43.0 °F 66% 29.83 in 10.0 mi West 6.9 mph - N/A   Mostly Cloudy
7:56 AM 57.0 °F 42.1 °F 57% 29.85 in 10.0 mi Variable 6.9 mph - N/A   Mostly Cloudy
8:56 AM 60.1 °F 39.9 °F 47% 29.85 in 10.0 mi WNW 9.2 mph - N/A   Mostly Cloudy
9:56 AM 61.0 °F 39.0 °F 44% 29.85 in 10.0 mi WNW 13.8 mph 21.9 mph N/A   Mostly Cloudy
10:56 AM 64.0 °F 37.9 °F 38% 29.85 in 10.0 mi NNW 12.7 mph - N/A   Mostly Cloudy
11:56 AM 64.9 °F 35.1 °F 33% 29.86 in 10.0 mi NNW 10.4 mph - N/A   Mostly Cloudy
12:56 PM 64.9 °F 37.9 °F 37% 29.86 in 10.0 mi NNE 9.2 mph 19.6 mph N/A   Mostly Cloudy
1:56 PM 66.9 °F 35.1 °F 31% 29.85 in 10.0 mi NW 13.8 mph - N/A   Mostly Cloudy
2:56 PM 71.1 °F 32.0 °F 24% 29.85 in 10.0 mi NW 17.3 mph 24.2 mph N/A   Mostly Cloudy
3:56 PM 70.0 °F 30.9 °F 24% 29.84 in 10.0 mi WNW 17.3 mph 26.5 mph N/A   Mostly Cloudy
4:56 PM 71.1 °F 28.9 °F 21% 29.83 in 10.0 mi NNW 12.7 mph 19.6 mph N/A   Mostly Cloudy
5:56 PM 71.1 °F 27.0 °F 19% 29.82 in 10.0 mi NNW 12.7 mph 19.6 mph N/A   Mostly Cloudy
6:56 PM 69.1 °F 27.0 °F 21% 29.82 in 10.0 mi NNW 15.0 mph - N/A   Scattered Clouds
7:56 PM 64.9 °F 28.0 °F 25% 29.81 in 10.0 mi NNW 9.2 mph - N/A   Scattered Clouds
8:56 PM 59.0 °F 28.9 °F 32% 29.82 in 10.0 mi North 4.6 mph - N/A   Scattered Clouds
9:56 PM 57.0 °F 28.9 °F 34% 29.83 in 10.0 mi Calm Calm - N/A   Partly Cloudy
10:56 PM 51.1 °F 34.0 °F 52% 29.83 in 10.0 mi SSW 3.5 mph - N/A   Clear
11:56 PM 54.0 °F 32.0 °F 43% 29.83 in 10.0 mi WNW 9.2 mph - N/A   Clear